Find Starlink 31625

NORAD ID: 59458 Int'l Des: 2024-068 Owner: SPXS Country: US Constellation: starlink operational
LEOCIRCULAR

リアルタイム位置

3D地球を読み込み中...

Starlink 31625について

説明を読み込み中...

次回通過

Passes for default location (London). Set your location on the main map for personalized predictions.

高度履歴

Loading altitude history...

軌道要素

1 59458U 24068D 26124.86846600 .00005843 00000-0 22173-3 0 9992
2 59458 43.0033 77.3253 0001480 252.1559 107.9131 15.27574736117115
Epoch: May 4, 2026 • Age: 5 hours

現在のステータス

高度 487.2 km
速度 7.63 km/s
衛星直下点 43.08°N, 90.2°W
打ち上げ日 Apr 10, 2024
運用期間 2 years
タイプ internet

技術仕様

分類 Payload
質量 730.00 kg
乾燥質量 700.00 kg
総質量 730.00 kg
長さ 0.30 m
直径 4.10 m
スパン 29.00 m
形状 Box + pan
製造者 SPXS
バスタイプ Starlink V2M
フェーズステータス In Orbit
所有者/国 SPXS/US

Most Searched